GW2922 Weather Reports


time (UTC)temp
C
wind
direction
speed
KPH
gust
KPH
rain 1hr
cm
rain 24hr
cm
rain mn
cm
humidity
%
barometer
mb
20260831011352 17 115 0.0 3.2 0.00 0.00 0.00 70 1021.6
20260831010848 17 90 1.6 3.2 0.00 0.00 0.00 70 1021.6
20260831010348 17 84 1.6 3.2 0.00 0.00 0.00 70 1021.6
20260831005844 17 352 3.2 3.2 0.00 0.00 0.00 70 1021.6
20260831005339 17 19 1.6 3.2 0.00 0.00 0.00 69 1021.6
20260831004834 17 81 1.6 3.2 0.00 0.00 0.00 70 1021.6
20260831004330 17 71 0.0 3.2 0.00 0.00 0.00 69 1021.6
20260831003826 17 164 3.2 6.4 0.00 0.00 0.00 69 1021.9
20260831003322 17 98 0.0 3.2 0.00 0.00 0.00 69 1021.6
20260831002820 17 106 0.0 1.6 0.00 0.00 0.00 69 1021.6
20260831002314 17 77 3.2 4.8 0.00 0.00 0.00 70 1021.9
20260831001810 17 73 1.6 3.2 0.00 0.00 0.00 69 1021.9
20260831001305 17 290 3.2 3.2 0.00 0.00 0.00 69 1021.9
20260831000803 17 104 0.0 11.3 0.00 0.00 0.00 68 1021.9
20260831000303 17 47 4.8 4.8 0.00 0.00 0.00 67 1021.9
20260830235801 17 323 4.8 9.7 0.00 0.00 0.00 67 1021.9
20260830235256 18 296 3.2 4.8 0.00 0.00 0.00 65 1021.9
20260830234751 18 358 1.6 4.8 0.00 0.00 0.00 63 1021.9
20260830234247 18 82 1.6 3.2 0.00 0.00 0.00 63 1021.6
20260830233743 18 77 1.6 9.7 0.00 0.00 0.00 64 1021.9
20260830233238 18 215 3.2 12.9 0.00 0.00 0.00 64 1021.6
20260830232733 18 121 0.0 6.4 0.00 0.00 0.00 63 1021.9
20260830232229 18 105 3.2 4.8 0.00 0.00 0.00 64 1021.9
20260830231726 18 45 1.6 4.8 0.00 0.00 0.00 63 1021.9
20260830231225 18 76 1.6 4.8 0.00 0.00 0.00 62 1021.9
20260830230720 18 60 3.2 4.8 0.00 0.00 0.00 60 1021.9
20260830230215 19 244 3.2 3.2 0.00 0.00 0.00 59 1021.9
20260830225709 20 98 1.6 6.4 0.00 0.00 0.00 59 1021.9
20260830225209 20 19 0.0 4.8 0.00 0.00 0.00 58 1021.9
20260830224708 22 301 4.8 6.4 0.00 0.00 0.00 52 1021.9
20260830224204 21 179 4.8 6.4 0.00 0.00 0.00 52 1021.6
20260830223701 21 105 1.6 9.7 0.00 0.00 0.00 53 1021.9
20260830223156 21 216 1.6 6.4 0.00 0.00 0.00 54 1021.9
20260830222650 20 139 1.6 3.2 0.00 0.00 0.00 55 1021.6
20260830222145 20 116 1.6 3.2 0.00 0.00 0.00 55 1021.9
20260830221636 21 77 1.6 9.7 0.00 0.00 0.00 53 1021.9
20260830221132 21 90 0.0 4.8 0.00 0.00 0.00 55 1021.9
20260830220627 21 108 3.2 6.4 0.00 0.00 0.00 53 1021.9
20260830220126 21 139 1.6 4.8 0.00 0.00 0.00 54 1022.3
20260830215625 20 121 0.0 6.4 0.00 0.00 0.00 55 1022.3
20260830215120 21 111 3.2 3.2 0.00 0.00 0.00 53 1022.3
20260830214615 21 106 1.6 3.2 0.00 0.00 0.00 52 1022.3
20260830214109 20 113 3.2 4.8 0.00 0.00 0.00 55 1022.3
20260830213609 20 105 3.2 3.2 0.00 0.00 0.00 56 1022.3
20260830213104 20 110 3.2 3.2 0.00 0.00 0.00 57 1022.3
20260830212600 20 116 3.2 6.4 0.00 0.00 0.00 58 1022.3
20260830212055 20 106 1.6 3.2 0.00 0.00 0.00 57 1022.3
20260830211550 20 110 0.0 11.3 0.00 0.00 0.00 59 1022.3
20260830211049 20 118 0.0 1.6 0.00 0.00 0.00 58 1022.3
20260830210545 20 109 9.7 12.9 0.00 0.00 0.00 59 1022.3
20260830210043 19 190 6.4 12.9 0.00 0.00 0.00 61 1022.3
20260830205541 18 157 8.0 9.7 0.00 0.00 0.00 64 1022.3
20260830205037 18 154 6.4 11.3 0.00 0.00 0.00 64 1022.3
20260830204536 18 159 11.3 12.9 0.00 0.00 0.00 65 1022.3
20260830204036 18 251 1.6 6.4 0.00 0.00 0.00 67 1022.3
20260830203532 17 184 8.0 14.5 0.00 0.00 0.00 68 1022.3
20260830203032 18 99 1.6 4.8 0.00 0.00 0.00 66 1022.3
20260830202527 17 115 6.4 12.9 0.00 0.00 0.00 68 1022.3
20260830202023 18 117 4.8 9.7 0.00 0.00 0.00 64 1022.3
20260830201522 18 100 4.8 6.4 0.00 0.00 0.00 65 1022.3
20260830201017 19 186 6.4 11.3 0.00 0.00 0.00 64 1022.3
20260830200512 20 160 8.0 14.5 0.00 0.00 0.00 61 1022.3
20260830200011 18 156 6.4 11.3 0.00 0.00 0.00 66 1022.3
20260830195507 18 125 1.6 4.8 0.00 0.00 0.00 68 1022.3
20260830195005 17 179 9.7 12.9 0.00 0.00 0.00 70 1022.3
20260830194504 18 87 11.3 17.7 0.00 0.00 0.00 67 1022.3
20260830194004 18 161 3.2 11.3 0.00 0.00 0.00 66 1022.3
20260830193503 18 156 6.4 12.9 0.00 0.00 0.00 67 1022.6
20260830192959 18 128 0.0 6.4 0.00 0.00 0.00 66 1022.3
20260830192455 18 135 3.2 9.7 0.00 0.00 0.00 65 1022.6
20260830191950 18 108 1.6 9.7 0.00 0.00 0.00 67 1022.3
20260830191449 18 131 1.6 3.2 0.00 0.00 0.00 67 1022.6
20260830190940 18 16 1.6 3.2 0.00 0.00 0.00 68 1022.3
20260830190435 17 136 3.2 6.4 0.00 0.00 0.00 69 1022.3
20260830185934 18 103 0.0 3.2 0.00 0.00 0.00 68 1022.6
20260830185429 18 90 1.6 11.3 0.00 0.00 0.00 69 1022.6
20260830184925 18 169 1.6 4.8 0.00 0.00 0.00 69 1022.6
20260830184424 17 107 0.0 3.2 0.00 0.00 0.00 73 1022.6
20260830183923 16 257 3.2 4.8 0.00 0.00 0.00 74 1022.6
20260830183418 16 115 3.2 4.8 0.00 0.00 0.00 75 1022.6
20260830182914 17 106 0.0 1.6 0.00 0.00 0.00 74 1022.9
20260830182409 17 102 1.6 3.2 0.00 0.00 0.00 72 1022.6
20260830181906 17 101 0.0 3.2 0.00 0.00 0.00 73 1022.6
20260830181401 17 90 1.6 3.2 0.00 0.00 0.00 73 1022.6
20260830180900 17 105 1.6 3.2 0.00 0.00 0.00 72 1022.6
20260830180355 17 99 1.6 1.6 0.00 0.00 0.00 71 1022.6
20260830175854 17 120 0.0 3.2 0.00 0.00 0.00 73 1022.6
20260830175348 17 115 4.8 6.4 0.00 0.00 0.00 74 1022.3
20260830174849 17 171 1.6 11.3 0.00 0.00 0.00 73 1022.3
20260830174344 17 97 1.6 1.6 0.00 0.00 0.00 73 1022.3
20260830173839 16 97 1.6 3.2 0.00 0.00 0.00 74 1022.3
20260830173334 17 93 3.2 3.2 0.00 0.00 0.00 74 1022.3
20260830172830 17 163 3.2 9.7 0.00 0.00 0.00 74 1022.3
20260830172327 17 113 1.6 3.2 0.00 0.00 0.00 73 1022.3
20260830171822 16 116 3.2 3.2 0.00 0.00 0.00 74 1022.3
20260830171318 16 102 1.6 3.2 0.00 0.00 0.00 73 1022.3
20260830170813 16 175 6.4 9.7 0.00 0.00 0.00 75 1022.3
20260830170312 16 190 4.8 14.5 0.00 0.00 0.00 74 1022.3
20260830165811 16 141 9.7 14.5 0.00 0.00 0.00 75 1022.3
20260830165307 15 184 6.4 11.3 0.00 0.00 0.00 77 1022.3
20260830164803 15 105 9.7 12.9 0.00 0.00 0.00 77 1022.3
20260830164259 15 181 8.0 11.3 0.00 0.00 0.00 78 1022.3
20260830163755 15 123 1.6 6.4 0.00 0.00 0.00 79 1022.3
20260830163245 15 109 3.2 9.7 0.00 0.00 0.00 79 1022.6
20260830162739 15 105 1.6 3.2 0.00 0.00 0.00 79 1022.3
20260830162236 15 119 3.2 6.4 0.00 0.00 0.00 80 1022.6
20260830161731 15 103 0.0 3.2 0.00 0.00 0.00 80 1022.3
20260830161230 14 107 0.0 9.7 0.00 0.00 0.00 80 1022.3
20260830160726 14 112 4.8 4.8 0.00 0.00 0.00 80 1022.3
20260830160226 14 106 3.2 6.4 0.00 0.00 0.00 80 1022.3
20260830155723 14 119 3.2 6.4 0.00 0.00 0.00 81 1022.3
20260830155218 14 139 0.0 4.8 0.00 0.00 0.00 81 1022.3
20260830154713 13 120 1.6 3.2 0.00 0.00 0.00 81 1022.3
20260830154208 13 117 0.0 1.6 0.00 0.00 0.00 82 1022.3
20260830153705 13 143 1.6 4.8 0.00 0.00 0.00 82 1022.6
20260830153200 13 123 3.2 3.2 0.00 0.00 0.00 83 1022.3
20260830152659 13 152 3.2 4.8 0.00 0.00 0.00 83 1022.3
20260830152158 13 173 3.2 4.8 0.00 0.00 0.00 82 1022.3
20260830151653 13 108 0.0 3.2 0.00 0.00 0.00 82 1022.3
20260830151152 13 111 1.6 4.8 0.00 0.00 0.00 82 1022.3
20260830150648 13 107 0.0 1.6 0.00 0.00 0.00 82 1022.3
20260830150143 13 132 1.6 3.2 0.00 0.00 0.00 82 1022.3
20260830145642 13 117 1.6 3.2 0.00 0.00 0.00 83 1022.3
20260830145137 13 160 3.2 3.2 0.00 0.00 0.00 83 1022.3
20260830144632 13 110 1.6 1.6 0.00 0.00 0.00 84 1022.3
20260830144128 13 119 0.0 1.6 0.00 0.00 0.00 85 1022.3
20260830143625 13 115 0.0 0.0 0.00 0.00 0.00 85 1022.3
20260830143122 13 119 0.0 1.6 0.00 0.00 0.00 86 1022.3
20260830142618 12 123 0.0 1.6 0.00 0.00 0.00 86 1022.3
20260830142112 12 114 1.6 1.6 0.00 0.00 0.00 86 1021.9
20260830141608 12 137 0.0 1.6 0.00 0.00 0.00 87 1022.3
20260830141103 12 145 0.0 1.6 0.00 0.00 0.00 87 1022.3
20260830140557 12 139 1.6 1.6 0.00 0.00 0.00 87 1022.3
20260830140053 12 121 0.0 1.6 0.00 0.00 0.00 86 1022.3
20260830135547 12 142 1.6 1.6 0.00 0.00 0.00 86 1022.3
20260830135042 12 150 1.6 3.2 0.00 0.00 0.00 85 1021.9
20260830134539 12 148 0.0 3.2 0.00 0.00 0.00 85 1021.9
20260830134034 12 177 4.8 4.8 0.00 0.00 0.00 84 1021.9
20260830133529 13 176 1.6 3.2 0.00 0.00 0.00 84 1021.9
20260830133024 13 167 3.2 4.8 0.00 0.00 0.00 83 1021.9
20260830132520 13 111 1.6 4.8 0.00 0.00 0.00 82 1021.9
20260830132020 13 154 1.6 4.8 0.00 0.00 0.00 83 1021.6
20260830131519 13 159 4.8 4.8 0.00 0.00 0.00 84 1021.9
20260830131014 13 164 1.6 3.2 0.00 0.00 0.00 84 1021.9
20260830130514 12 180 4.8 4.8 0.00 0.00 0.00 84 1021.9
20260830130010 12 164 4.8 6.4 0.00 0.00 0.00 85 1021.6
20260830125504 12 182 1.6 3.2 0.00 0.00 0.00 85 1021.9
20260830125003 12 131 1.6 6.4 0.00 0.00 0.00 85 1021.9
20260830124457 12 186 3.2 6.4 0.00 0.00 0.00 85 1021.9
20260830123953 12 184 0.0 4.8 0.00 0.00 0.00 85 1021.9
20260830123450 12 201 4.8 4.8 0.00 0.00 0.00 85 1021.9
20260830122948 12 165 0.0 6.4 0.00 0.00 0.00 85 1021.9
20260830122447 12 168 1.6 3.2 0.00 0.00 0.00 85 1021.9
20260830121941 12 163 3.2 4.8 0.00 0.00 0.00 85 1021.9
20260830121437 12 202 4.8 6.4 0.00 0.00 0.00 85 1021.9
20260830120931 12 50 1.6 4.8 0.00 0.00 0.00 85 1021.9
20260830120427 12 118 0.0 4.8 0.00 0.00 0.00 85 1022.3
20260830115923 12 186 8.0 9.7 0.00 0.00 0.00 85 1021.9
20260830115419 12 177 1.6 4.8 0.00 0.00 0.00 86 1022.3
20260830114915 12 181 3.2 4.8 0.00 0.00 0.00 85 1022.3
20260830114412 12 144 3.2 4.8 0.00 0.00 0.00 86 1022.3
20260830113911 12 158 0.0 1.6 0.00 0.00 0.00 85 1022.3
20260830113406 12 144 0.0 1.6 0.00 0.00 0.00 85 1022.3
20260830112901 12 141 1.6 3.2 0.00 0.00 0.00 85 1021.9
20260830112357 13 124 0.0 0.0 0.00 0.00 0.00 84 1022.3
20260830111854 13 136 0.0 0.0 0.00 0.00 0.00 84 1021.9
20260830111349 13 115 0.0 1.6 0.00 0.00 0.00 84 1022.3
20260830110844 13 200 4.8 6.4 0.00 0.00 0.00 84 1022.3
20260830110340 13 198 4.8 6.4 0.00 0.00 0.00 84 1022.3
20260830105839 13 142 0.0 1.6 0.00 0.00 0.00 84 1021.9
20260830105336 13 129 0.0 0.0 0.00 0.00 0.00 84 1021.9
20260830104832 13 144 1.6 3.2 0.00 0.00 0.00 84 1021.9
20260830104328 13 119 1.6 4.8 0.00 0.00 0.00 84 1021.9
20260830103827 13 168 1.6 3.2 0.00 0.00 0.00 83 1021.9
20260830103323 13 159 0.0 3.2 0.00 0.00 0.00 82 1021.9
20260830102821 13 123 1.6 3.2 0.00 0.00 0.00 82 1021.9
20260830102317 13 168 0.0 1.6 0.00 0.00 0.00 82 1021.9
20260830101813 13 140 0.0 3.2 0.00 0.00 0.00 82 1021.9
20260830101308 13 135 0.0 1.6 0.00 0.00 0.00 82 1021.9
20260830100807 13 135 0.0 0.0 0.00 0.00 0.00 82 1021.9
20260830100302 13 119 0.0 1.6 0.00 0.00 0.00 82 1021.9
20260830095800 13 148 1.6 4.8 0.00 0.00 0.00 82 1021.9
20260830095257 13 96 1.6 3.2 0.00 0.00 0.00 82 1021.9
20260830094752 13 137 1.6 6.4 0.00 0.00 0.00 82 1021.9
20260830094249 13 147 1.6 6.4 0.00 0.00 0.00 82 1021.6
20260830093748 13 283 1.6 4.8 0.00 0.00 0.00 82 1021.6
20260830093244 13 124 0.0 3.2 0.00 0.00 0.00 82 1021.6
20260830092738 13 198 1.6 4.8 0.00 0.00 0.00 82 1021.9
20260830092236 13 278 3.2 4.8 0.00 0.00 0.00 82 1021.9
20260830091732 13 240 1.6 3.2 0.00 0.00 0.00 82 1021.6
20260830091231 13 145 1.6 4.8 0.00 0.00 0.00 81 1021.6
20260830090730 13 105 1.6 9.7 0.00 0.00 0.00 81 1021.9
20260830090226 13 122 1.6 3.2 0.00 0.00 0.00 82 1021.6
20260830085725 13 162 0.0 3.2 0.00 0.00 0.00 82 1021.9
20260830085221 13 122 1.6 1.6 0.00 0.00 0.00 82 1021.9
20260830084716 13 193 1.6 4.8 0.00 0.00 0.00 82 1021.9
20260830084212 13 316 3.2 3.2 0.00 0.00 0.00 82 1021.6
20260830083706 13 115 0.0 1.6 0.00 0.00 0.00 82 1021.9
20260830083201 13 186 1.6 3.2 0.00 0.00 0.00 82 1021.9
20260830082656 13 211 1.6 3.2 0.00 0.00 0.00 82 1021.6
20260830082152 13 163 0.0 4.8 0.00 0.00 0.00 82 1021.6
20260830081647 13 111 0.0 3.2 0.00 0.00 0.00 82 1021.6
20260830081146 13 101 1.6 1.6 0.00 0.00 0.00 82 1021.6
20260830080641 13 109 0.0 3.2 0.00 0.00 0.00 82 1021.6
20260830080137 13 94 0.0 1.6 0.00 0.00 0.00 82 1021.6
20260830075636 13 94 0.0 3.2 0.00 0.00 0.00 81 1021.6
20260830075132 13 119 0.0 4.8 0.00 0.00 0.00 82 1021.6
20260830074627 13 88 0.0 1.6 0.00 0.00 0.00 82 1021.6
20260830074123 13 109 0.0 1.6 0.00 0.00 0.00 81 1021.6
20260830073619 13 112 0.0 3.2 0.00 0.00 0.00 81 1021.6
20260830073114 13 90 0.0 14.5 0.00 0.00 0.00 81 1021.6
20260830072609 12 349 3.2 6.4 0.00 0.00 0.00 82 1021.6
20260830072109 12 232 1.6 3.2 0.00 0.00 0.00 82 1021.6
20260830071605 13 113 1.6 3.2 0.00 0.00 0.00 82 1021.3
20260830071102 13 86 3.2 4.8 0.00 0.00 0.00 82 1021.6
20260830070603 13 101 1.6 12.9 0.00 0.00 0.00 82 1021.6
20260830070058 12 63 3.2 4.8 0.00 0.00 0.00 82 1021.3
20260830065557 12 100 0.0 6.4 0.00 0.33 0.33 83 1021.6
20260830065056 12 102 3.2 6.4 0.00 0.33 0.33 83 1021.3
20260830064550 12 137 0.0 3.2 0.00 0.33 0.33 83 1021.6
20260830064045 12 146 1.6 3.2 0.00 0.33 0.33 84 1021.6
20260830063539 12 89 0.0 1.6 0.00 0.33 0.33 84 1021.6
20260830063038 12 43 1.6 4.8 0.00 0.33 0.33 84 1021.6
20260830062533 12 27 3.2 4.8 0.00 0.33 0.33 84 1021.6
20260830062028 12 75 3.2 6.4 0.00 0.33 0.33 84 1021.6
20260830061522 12 94 0.0 1.6 0.00 0.33 0.33 84 1021.6
20260830061019 12 338 3.2 6.4 0.00 0.33 0.33 84 1021.6
20260830060515 12 87 0.0 3.2 0.00 0.33 0.33 84 1021.6
20260830060011 12 39 1.6 3.2 0.00 0.33 0.33 83 1021.6
20260830055506 12 102 1.6 4.8 0.00 0.33 0.33 83 1021.6
20260830055002 12 136 1.6 1.6 0.00 0.33 0.33 83 1021.6
20260830054457 12 6 3.2 9.7 0.00 0.33 0.33 83 1021.6
20260830053953 12 112 1.6 6.4 0.00 0.33 0.33 83 1021.6
20260830053448 12 127 0.0 3.2 0.00 0.33 0.33 83 1021.9
20260830052947 12 187 1.6 6.4 0.00 0.33 0.33 83 1021.9
20260830052443 12 179 3.2 3.2 0.00 0.33 0.33 83 1021.9
20260830051938 12 273 1.6 3.2 0.00 0.33 0.33 83 1021.9
20260830051433 12 152 0.0 1.6 0.00 0.33 0.33 83 1021.9
20260830050932 12 319 1.6 1.6 0.00 0.33 0.33 83 1021.9
20260830050428 12 141 1.6 9.7 0.00 0.33 0.33 83 1021.9
20260830045926 12 62 1.6 4.8 0.00 0.33 0.33 83 1021.9
20260830045421 12 255 1.6 3.2 0.00 0.33 0.33 82 1021.9
20260830044920 13 161 0.0 3.2 0.00 0.33 0.33 82 1021.9
20260830044416 12 77 1.6 1.6 0.00 0.33 0.33 82 1021.9
20260830043911 12 119 3.2 4.8 0.00 0.33 0.33 82 1021.9
20260830043405 13 86 0.0 1.6 0.00 0.33 0.33 82 1021.9
20260830042903 13 131 1.6 12.9 0.00 0.33 0.33 82 1021.9
20260830042352 13 271 3.2 4.8 0.00 0.33 0.33 82 1021.9
20260830041851 13 105 3.2 4.8 0.00 0.33 0.33 81 1021.9
20260830041350 13 97 1.6 4.8 0.00 0.33 0.33 81 1021.6
20260830040846 13 131 1.6 3.2 0.00 0.33 0.33 81 1021.6
20260830040342 13 29 1.6 3.2 0.00 0.33 0.33 81 1021.6
20260830035841 13 230 0.0 3.2 0.00 0.33 0.33 81 1021.6
20260830035340 13 353 0.0 3.2 0.00 0.33 0.33 81 1021.6
20260830034835 13 107 3.2 4.8 0.00 0.33 0.33 80 1021.6
20260830034335 13 152 0.0 1.6 0.00 0.33 0.33 80 1021.3
20260830033826 13 210 3.2 4.8 0.00 0.33 0.33 80 1021.6
20260830033325 13 38 1.6 4.8 0.00 0.33 0.33 79 1021.3
20260830032821 13 168 1.6 11.3 0.00 0.33 0.33 79 1021.6
20260830032315 13 45 1.6 1.6 0.00 0.33 0.33 79 1021.3
20260830031810 13 337 8.0 9.7 0.00 0.33 0.33 79 1021.3
20260830031306 13 106 0.0 3.2 0.00 0.33 0.33 79 1021.3
20260830030801 13 96 0.0 1.6 0.00 0.33 0.33 79 1021.3
20260830030257 13 96 1.6 6.4 0.00 0.33 0.33 79 1021.3
20260830025755 13 111 3.2 6.4 0.00 0.33 0.33 79 1021.3
20260830025249 13 116 1.6 6.4 0.00 0.33 0.33 79 1021.3
20260830024743 13 67 1.6 4.8 0.00 0.33 0.33 79 1020.9
20260830024238 14 335 4.8 4.8 0.00 0.33 0.33 78 1020.9
20260830023736 14 95 1.6 3.2 0.00 0.33 0.33 78 1020.9
20260830023235 14 89 1.6 4.8 0.00 0.33 0.33 77 1020.9
20260830022734 15 104 0.0 4.8 0.00 0.33 0.33 77 1020.9
20260830022230 15 263 4.8 6.4 0.00 0.33 0.33 76 1021.3
20260830021725 15 94 0.0 3.2 0.00 0.33 0.33 76 1020.9
20260830021220 15 73 4.8 6.4 0.00 0.33 0.33 75 1020.9
20260830020719 15 90 0.0 1.6 0.00 0.33 0.33 74 1020.9
20260830020214 16 127 0.0 6.4 0.00 0.33 0.33 73 1020.9
20260830015714 16 129 0.0 3.2 0.00 0.33 0.33 74 1020.9
20260830015210 16 355 1.6 1.6 0.00 0.33 0.33 73 1020.6
20260830014705 16 94 0.0 3.2 0.00 0.33 0.33 73 1020.6
20260830014201 16 144 1.6 1.6 0.00 0.33 0.33 72 1020.6
20260830013656 16 89 1.6 4.8 0.00 0.33 0.33 71 1020.6
20260830013151 17 93 0.0 3.2 0.00 0.33 0.33 70 1020.6
20260830012651 18 104 0.0 6.4 0.00 0.33 0.33 67 1020.6
20260830012147 18 149 1.6 3.2 0.00 0.33 0.33 65 1020.6